STARLINK-34115, 63972

Orbit data source: Space-Track

STARLINK-34115, 63972 is a payload satellite owned by SpaceX/Seattle (US) in LEO that was launched on Tue, 13 May 2025 UTC via an FALCON 9 launch vehicle from the Air Force Eastern Test Range (AFETR). Payload-class satellites include a variety of spacecraft equipped with specific instruments for various scientific and technological missions. These include communications satellites like Starlink; space stations such as the ISS; scientific satellites like the Hubble; Earth observation satellites from companies like Planet Labs, Umbra, and HawkEye 360; GPS; miniature CubeSats for education and research; and military/defense satellites.

Loading next visibility...
Identifier
63972, 2025-099W
Orbit
LEO
Country
Flag of USUS
Related business
Manufacturer
SpaceX/Seattle
Mission
Operational Commercial Communications
Bus & Motor
STARLINK V2MO, Unknown motor
Mass
575 kg wet, ~530 kg dry
Launch date (UTC)
2025-05-13 (7 months ago)
Launch vehicle
FALCON 9
Launch site
Air Force Eastern Test Range (AFETR)
Object type
Payload
Rocket body
Debris
Shape & HBR
Box + 2 Pan, 17.7 m
Radar Cross Section
36.964 m², Large (>1 m²)

Expand to show TLE details & history
Last TLE update: 1 day ago

TLE from 1 day ago
0 STARLINK-34115
1 63972U 25099W   25346.30360970  .00041223  00000-0  15006-2 0  9996
2 63972  43.0019 306.1017 0001658 275.7368  84.3294 15.27549229 34016
Epoch: 2025-12-12T07:17Z
TLE epoch observation values (Epoch: 2025-12-12T07:17:11.878Z)
Latitude
-0.00004°
Longitude
115.555°
Altitude
482.805 km
Speed
7.626 km/s
True Right ascension
20h 24m 24s
True Declination
0° 00' 00"
Sunlit
Object was in daylight at epoch
Visualization orbit readout
Latitude
Unknown
Longitude
Unknown
Altitude
Unknown
Speed
Unknown
Apparent Right ascension
Unknown
Apparent Declination
Unknown
Sunlit
N/A
Visualization observer readout
Local Sidereal Time
07:28:05
Azimuth
Unknown
Elevation
Unknown
Doppler factor
Unknown
Orbital elements
Apogee altitude
486.224 km
Perigee altitude
483.948 km
Semi-major axis
6,863.223 km
Eccentricity
0.00017
Inclination
43.0019°
RAAN
306.1017°
Arg. of periapsis
275.7368°
True anomaly
84.34831°
Mean anomaly
84.3294°
Eccentric anomaly
84.33885°
Mean motion
3.81725 °/min
Orbital period
94.31 mins
BSTAR
0.0015006
Loading maneuver chart data...
Computing Atmospheric mass density...
Loading historical data...
Loading historical data...
Loading historical data...
Loading historical data...
Loading historical data...
Loading historical data...
Loading historical data...

Documentation

Showing up to 5 results
|